#timestamp,LO_Frequency,Hit,StdDev 
1678626015.1,286047000.9,N
1678626035.9,286047001.1,N
1678626055.7,286047000.9,N
1678626075.5,286046998.6,N
1678626095.4,286046999.8,N
1678626115.2,286046999.8,N
1678626135.0,286047000.2,N
1678626135.9,286047000.2,N
1678626155.8,286047002.3,N
1678626175.6,286047002.4,N
1678626195.5,286047002.8,N
1678626215.3,286047004.4,Y
1678626235.1,286047002.5,P
1678626255.9,286046999.7,N
1678626275.7,286047000.5,N
1678626295.5,286046999.9,N
1678626315.4,286047002.6,N
1678626335.2,286047002.5,N
1678626355.1,286047001.8,N
1678626356.0,286047001.8,N
1678626375.8,286047001.4,N
1678626395.6,286047002.4,N
1678626415.5,286047002.8,N
1678626435.3,286047002.6,N
1678626455.1,286047002.1,N
1678626475.9,286047002.6,N
1678626495.7,286046999.7,N
1678626515.6,286047001.6,N
1678626535.4,286047002.3,N
1678626555.2,286047001.6,N
1678626575.1,286047001.9,N
1678626576.0,286047001.9,N
1678626595.8,286047001.9,N
1678626615.7,286047004.4,Y
1678626635.5,286047000.4,P
1678626655.3,286047000.1,N
1678626675.2,286047001.1,N
1678626695.9,286046998.1,Y
1678626715.7,286046996.8,P
1678626735.6,286046996.7,N
1678626755.4,286046999.3,N
1678626775.3,286046997.0,N
1678626795.1,286046999.4,N
1678626796.0,286046999.4,N
1678626815.8,286046998.4,N
1678626835.7,286046999.5,N
1678626855.5,286046999.6,N
1678626875.3,286046999.1,N
1678626895.2,286046996.6,N
1678626915.0,286046997.2,N
1678626915.9,286046997.2,N
1678626935.8,286046996.5,N
1678626955.6,286047000.9,N
1678626975.4,286047000.8,N
1678626995.3,286046998.1,N
1678627015.1,286046998.8,N
1678627035.8,286046998.2,N
1678627055.7,286046998.1,N
1678627075.5,286047000.3,N
1678627095.4,286047000.3,N
1678627115.2,286046998.2,N
1678627135.0,286046998.2,N
1678627135.9,286046998.2,N
1678627155.8,286046998.1,N
1678627175.6,286046998.6,N
1678627195.4,286046999.1,N
1678627215.3,286046999.5,N
1678627235.1,286046997.0,N
1678627255.9,286046996.9,N
1678627275.7,286046996.7,N
1678627295.5,286046998.7,N
1678627315.4,286046999.5,N
1678627335.2,286046996.8,N
1678627355.0,286046998.5,N
1678627355.9,286046998.5,N
1678627375.8,286046998.4,N
1678627395.6,286047000.1,N
1678627415.5,286047000.9,N
1678627435.3,286046998.1,N
1678627455.1,286047000.5,N
1678627475.9,286047002.7,N
1678627495.7,286046999.8,N
1678627515.5,286047002.8,N
1678627535.4,286047002.7,N
1678627555.2,286047000.9,N
1678627575.1,286047000.6,N
1678627576.0,286047000.6,N
1678627595.8,286047000.0,N
1678627615.6,286047000.0,N
1678627635.5,286046999.8,N
1678627655.3,286047002.3,N
1678627675.2,286047000.0,N
1678627695.9,286047000.9,N
1678627715.7,286046999.7,N
1678627735.6,286047000.3,N
1678627755.4,286047000.7,N
1678627775.2,286047001.0,N
1678627795.1,286046998.5,N
1678627796.0,286046998.5,N
1678627815.8,286046998.6,N
1678627835.7,286046998.6,N
1678627855.5,286047001.1,N
1678627875.3,286047001.1,N
1678627895.2,286047001.2,N
1678627915.0,286047000.5,N
1678627915.9,286047000.5,N
1678627935.7,286047000.5,N
1678627955.6,286047000.5,N
1678627975.4,286047000.0,N
1678627995.3,286047001.1,N
1678628015.1,286047000.9,N
1678628035.8,286047000.0,N
1678628055.7,286047001.0,N
1678628075.5,286047002.3,N
1678628095.4,286047002.8,N
1678628115.2,286047000.1,N
1678628135.0,286047000.2,N
1678628135.9,286047000.2,N
1678628155.8,286046999.9,N
1678628175.6,286047000.5,N
1678628195.4,286047000.4,N
1678628215.3,286047000.5,N
1678628235.1,286047000.9,N
1678628255.9,286047001.0,N
1678628275.7,286047000.6,N
1678628295.5,286047002.8,N
1678628315.4,286046999.9,N
1678628335.2,286047000.5,N
1678628355.0,286047000.0,N
1678628355.9,286047000.0,N
1678628375.8,286047002.2,N
1678628395.6,286047002.7,Y
1678628415.5,286046998.9,P
1678628435.3,286046998.8,N
1678628455.1,286046999.1,N
1678628475.9,286047000.7,N
1678628495.7,286047002.0,N
1678628515.5,286047002.1,N
1678628535.4,286047000.1,N
1678628555.2,286047001.1,N
1678628575.1,286047001.0,N
1678628576.0,286047001.0,N
1678628595.8,286047000.3,N
1678628615.6,286047000.2,N
1678628635.5,286047001.8,N
1678628655.3,286047003.3,Y
1678628675.1,286047004.0,P
1678628695.9,286047002.7,N
1678628745.8,286047000.7,E
1678628755.7,286047000.6,N
1678628775.5,286047000.4,P
1678628795.3,286046998.2,P
1678628815.2,286046998.1,N
1678628835.0,286046998.6,N
1678628865.9,286046999.9,E
1678628875.8,286046998.1,N
1678628895.7,286046999.3,P
1678628915.5,286046999.1,N
1678628935.4,286046999.2,N
1678628955.2,286046999.5,N
1678628975.0,286046999.3,N
1678628975.9,286046999.3,N
1678628995.8,286046998.7,Y
1678629015.6,286047000.2,P
1678629035.5,286047002.5,P
1678629055.3,286047001.4,N
1678629075.1,286047002.6,N
1678629095.9,286047002.6,N
1678629115.7,286047002.8,N
1678629135.5,286046998.5,N
1678629155.4,286046999.7,N
1678629175.2,286047000.1,N
1678629195.1,286047002.2,N
1678629196.0,286047002.2,N
1678629215.8,286046999.7,N
1678629235.6,286047000.4,N
1678629255.5,286047001.0,N
1678629275.3,286046999.8,N
1678629295.1,286047000.4,N
1678629315.9,286047001.9,N
1678629335.7,286047000.5,N
1678629355.6,286046999.8,N
1678629375.4,286047000.1,N
1678629395.2,286047000.5,N
1678629415.1,286047002.4,N
1678629416.0,286047002.4,N
1678629435.8,286047002.5,N
1678629455.6,286047002.6,N
1678629475.5,286047000.1,N
1678629495.3,286046999.7,N
1678629515.2,286047001.2,N
1678629535.9,286047000.8,N
1678629555.7,286047002.4,N
1678629575.6,286047001.9,N
1678629595.4,286047000.1,N
